This demonstration page uses our WeatherBlox Daily Observations layout. Learn more.

38.88101, -77.10428

Hourly Observations for March 7, 2020

Temp ( °F °C ) Dew Point ( °F °C ) Humidity (%) Winds ( mph kmh ) Pressure ( in mb ) Visibility ( mi km ) Precip ( " mm )
12:52 am 00:52 Cloudy 43 6.1 29 -1.7 58 58 NW 20 31 30.03 1017 10 16.0934 0.001 0.001
1:52 am 01:52 Cloudy 43 6.1 28 -2.2 56 56 NW 17 28 30.06 1018 10 16.0934 0 0
2:52 am 02:52 Cloudy 42 5.6 27 -2.8 55 55 NNW 29 46 30.09 1019 10 16.0934 0 0
3:52 am 03:52 Mostly Cloudy 42 5.6 27 -2.8 55 55 N 21 33 30.12 1020 10 16.0934 0 0
4:52 am 04:52 Mostly Cloudy 41 5 27 -2.8 57 57 NW 18 30 30.15 1021 10 16.0934 0 0
5:52 am 05:52 Mostly Clear 39 3.9 26 -3.3 60 60 NNW 17 28 30.2 1023 10 16.0934 0 0
6:52 am 06:52 Mostly Cloudy 40 4.4 26 -3.3 58 58 NNW 15 24 30.24 1024 10 16.0934 0 0
7:52 am 07:52 Mostly Cloudy 40 4.4 23 -5 51 51 NNW 21 33 30.28 1025 10 16.0934 0 0
8:52 am 08:52 Mostly Cloudy 43 6.1 23 -5 45 45 NNW 28 44 30.31 1027 10 16.0934 0 0
9:52 am 09:52 Mostly Cloudy 43 6.1 23 -5 45 45 N 23 37 30.33 1027 10 16.0934 0 0
10:52 am 10:52 Mostly Cloudy 46 7.8 23 -5 40 40 NNW 23 37 30.35 1028 10 16.0934 0 0
11:52 am 11:52 Partly Cloudy 48 8.9 22 -5.6 36 36 NNW 18 30 30.36 1028 10 16.0934 0 0
12:52 pm 12:52 Mostly Sunny 50 10 19 -7.2 29 29 NNW 23 37 30.35 1028 10 16.0934 0 0
1:40 pm 13:40 Mostly Sunny 51 10.6 19 -7.2 28 28 N 21 33 30.35 1028 10 16.0934 0 0
1:52 pm 13:52 Mostly Sunny 51 10.6 18 -7.8 27 27 NNW 15 24 30.35 1028 10 16.0934 0 0
2:52 pm 14:52 Mostly Sunny 53 11.7 18 -7.8 25 25 NNW 16 26 30.35 1028 10 16.0934 0 0
3:52 pm 15:52 Sunny 52 11.1 14 -10 22 22 N 20 31 30.36 1028 10 16.0934 0 0
4:52 pm 16:52 Sunny 52 11.1 13 -10.6 21 21 N 16 26 30.37 1029 10 16.0934 0 0
5:52 pm 17:52 Sunny 48 8.9 13 -10.6 24 24 NNW 9 15 30.4 1029 10 16.0934 0 0
6:52 pm 18:52 Clear 48 8.9 14 -10 25 25 NW 9 15 30.41 1030 10 16.0934 0 0
7:52 pm 19:52 Clear 47 8.3 15 -9.4 28 28 NW 12 19 30.43 1031 10 16.0934 0 0
8:52 pm 20:52 Clear 45 7.2 17 -8.3 33 33 NW 8 13 30.45 1031 10 16.0934 0 0
9:52 pm 21:52 Clear 45 7.2 18 -7.8 34 34 NNW 10 17 30.46 1032 10 16.0934 0 0
10:52 pm 22:52 Clear 44 6.7 17 -8.3 34 34 NW 9 15 30.47 1032 10 16.0934 0 0
11:52 pm 23:52 Mostly Cloudy 44 6.7 19 -7.2 37 37 NW 14 22 30.48 1032 10 16.0934 0 0

Powered by AerisWeather